Погода в Большой Речке

Россия / Республика Бурятия     51°58′11″N   106°19′34″E
темп.,
°C
ветер,
м/с
пор.,
м/с
влажн.,
%
обл.,
%
осадки,
мм/ч
давл.,
гПа
погр.,
м
22 мая, вс
вс2223:00+7юз4109316 0.0 1015185
02:00+7ююз47921 0.0 1014122
05:00+8ю348914 0.0 101347
08:00+13ююз46677 0.0 1011289
11:00+15зюз585745 0.0 1011370
14:00+18зюз56475 0.0 1008774
17:00+21зюз46385 0.0 1005702
20:00+18ююв11483 0.0 100313
23 мая, пн
пн2323:00+11св4676100 0.2 100594
02:00+9в128683 0.4 100753
05:00+9юз4689100 0.2 1009145
08:00+9зюз698495 0.3 1011260
11:00+14зюз686519 0.1 1011810
14:00+15з454818 0.1 1011922
17:00+16с35423 0.0 1012757
20:00+12с34585 0.0 101584
24 мая, вт
вт2423:00+7з127663 0.0 102016
02:00+7ююз227662 0.0 102211
05:00+6ююз33782 0.0 102433
08:00+10зюз44600 0.0 1026295
11:00+13з435610 0.0 1026512
14:00+15сз324816 0.0 1025679
17:00+13сз215716 0.0 1024327
20:00+11с22711 0.0 102520
25 мая, ср
ср2523:00+9в22720 0.0 102517
02:00+8всв22660 0.0 102513
05:00+7всв22670 0.0 102413
08:00+13св33520 0.0 1023195
11:00+18с43434 0.0 1020479
14:00+21с43380 0.0 1017560
17:00+20св45370 0.0 1014319
20:00+13ссв34595 0.0 101447
26 мая, чт
чт2623:00+9св1161100 0.0 101413
02:00+8ссв1163100 0.0 101211
05:00+8ссв1160100 0.0 101010
08:00+9ююз2364100 0.0 1012111
11:00+14зюз454995 0.0 1009314
14:00+17зюз6843100 0.0 1006293
17:00+17юз51047100 0.0 1004280
20:00+13юз4758100 0.0 1004144